[[{"header":{"parameterUnit":"m.s-1","parameterCategory":1,"la1":30.2991,"la2":30.254,"lo1":-89.0895,"lo2":-89.0444,"dy":0.0017,"dx":0.0017,"nx":28,"ny":28,"refTime":"2025-11-18T09:00:00:Z","depth":0,"parameterNumber":2,"parameterNumberName":"U-component_of_WINDS"},"data":[0,0,0,0,0,0,0,0,0,0,0,0,0,0,0,0,0,0,0,0,0,0,0,0,0,0,0,0,0,0,0,0,0,0,0,0,0,0,0,0,0,0,0,0,0,0,0,0,0,0,0,0,0,0,0,0,0,0,-1.4329,-1.4329,0,-1.4362,-1.4362,-1.4363,-1.4363,-1.4363,-1.4362,-1.4362,-1.4396,-1.4398,-1.4399,0,0,0,0,0,0,0,0,0,0,0,0,0,-1.4267,-1.4268,-1.4329,-1.4329,-1.433,-1.4362,-1.4362,-1.4363,-1.4363,-1.4363,-1.4362,-1.4362,-1.4396,-1.4398,-1.4399,0,0,0,0,0,0,0,0,0,0,0,0,0,-1.4296,-1.4268,-1.4329,-1.4334,-1.4334,-1.4362,-1.4362,-1.4363,-1.4363,-1.4363,-1.4362,-1.4361,-1.4395,-1.4397,-1.4399,-1.4424,0,0,-1.4405,-1.4406,0,0,0,0,0,0,0,0,-1.4294,-1.4298,-1.4333,-1.4333,-1.4334,-1.4358,-1.4353,-1.4383,-1.4363,-1.4352,-1.4362,-1.4361,-1.4384,-1.4387,-1.4395,-1.4426,-1.4427,-1.4405,-1.4407,-1.4408,-1.4408,0,0,0,0,0,0,0,-1.4292,-1.4297,-1.4342,-1.4333,-1.4334,-1.4334,-1.4338,-1.4359,-1.4371,-1.4353,-1.4353,-1.4357,-1.4384,-1.4393,-1.4395,-1.4428,-1.4405,-1.4407,-1.4408,-1.4409,-1.448,-1.4481,0,0,0,0,0,0,-1.4289,-1.4295,-1.4341,-1.4343,-1.4312,-1.4336,-1.434,-1.4351,-1.4371,-1.4374,-1.4358,-1.4357,-1.439,-1.4393,-1.4397,-1.4426,-1.4407,-1.4409,-1.441,-1.448,-1.448,-1.4481,0,0,0,0,0,0,-1.4288,-1.4293,-1.4339,-1.4319,-1.4325,-1.4338,-1.435,-1.4352,-1.436,-1.4375,-1.4377,-1.4364,-1.4389,-1.4394,-1.4417,-1.4427,-1.441,-1.4412,-1.4479,-1.448,-1.4481,-1.4486,0,0,0,0,0,0,-1.4286,-1.4293,-1.4302,-1.4319,-1.4326,-1.4359,-1.4351,-1.4353,-1.4363,-1.4363,-1.4381,-1.4383,-1.4389,-1.4414,-1.4419,-1.443,-1.4414,-1.4478,-1.4479,-1.448,-1.4485,-1.4487,-1.4489,0,0,0,0,0,-1.4284,-1.4303,-1.4303,-1.4308,-1.4338,-1.436,-1.4364,-1.437,-1.4364,-1.4374,-1.4383,-1.4383,-1.4426,-1.4416,-1.4422,-1.4434,-1.4477,-1.4479,-1.448,-1.4484,-1.4487,-1.4489,0,0,0,0,0,0,-1.4287,-1.4305,-1.4305,-1.433,-1.4343,-1.436,-1.4372,-1.4373,-1.4388,-1.4387,-1.4395,-1.4399,-1.4422,-1.443,-1.4419,-1.4458,-1.4451,-1.4454,-1.4452,-1.4454,-1.4456,-1.4453,-1.4415,0,0,0,0,0,-1.429,-1.4306,-1.4321,-1.4342,-1.4348,-1.4359,-1.4369,-1.4373,-1.4387,-1.4392,-1.4403,-1.4417,-1.4434,-1.4445,-1.4461,-1.4487,-1.449,-1.4497,-1.4499,-1.4501,-1.4503,-1.4517,-1.452,-1.4486,-1.4486,-1.4486,0,0,-1.4297,-1.4309,-1.4319,-1.4343,-1.4353,-1.437,-1.4364,-1.4382,-1.4394,-1.4395,-1.4417,-1.4426,-1.4442,-1.4467,-1.4478,-1.4474,-1.4513,-1.4503,-1.4504,-1.4505,-1.4519,-1.4522,-1.4524,-1.4488,-1.4487,-1.4487,0,0,-1.4319,-1.433,-1.4348,-1.4358,-1.4375,-1.4382,-1.4386,-1.4403,-1.4408,-1.4431,-1.4432,-1.4447,-1.4476,-1.4487,-1.4496,-1.4522,-1.4522,-1.4528,-1.4538,-1.4551,-1.4553,-1.4556,-1.4564,-1.4567,-1.453,-1.453,-1.453,0,-1.4326,-1.435,-1.4357,-1.4374,-1.4384,-1.4386,-1.4405,-1.4415,-1.4436,-1.4443,-1.4439,-1.4475,-1.4486,-1.4512,-1.4519,-1.4527,-1.4531,-1.4525,-1.4552,-1.4555,-1.4557,-1.4565,-1.4569,-1.453,-1.453,-1.453,-1.453,0,-1.4358,-1.4375,-1.4387,-1.4407,-1.4419,-1.4436,-1.4446,-1.4457,-1.446,-1.4467,-1.449,-1.4503,-1.4522,-1.4529,-1.4532,-1.4556,-1.4553,-1.4551,-1.4543,-1.4561,-1.4568,-1.4572,-1.4531,-1.4531,-1.4531,-1.453,0,0,-1.4381,-1.4404,-1.4409,-1.4417,-1.4435,-1.4449,-1.4467,-1.4485,-1.4494,-1.4508,-1.4523,-1.4548,-1.4545,-1.4556,-1.4561,-1.4572,-1.4591,-1.4569,-1.4569,-1.4571,-1.4618,-1.4618,-1.4622,-1.4592,-1.4592,-1.4593,-1.4616,0,-1.4404,-1.4435,-1.4442,-1.4469,-1.4484,-1.4487,-1.4502,-1.4515,-1.4523,-1.4537,-1.4546,-1.4562,-1.4559,-1.4565,-1.4577,-1.4586,-1.46,-1.4585,-1.4605,-1.4606,-1.46,-1.4626,-1.4627,-1.4648,-1.4619,-1.462,-1.462,0,-1.4435,-1.4449,-1.4478,-1.4493,-1.45,-1.4514,-1.4531,-1.4545,-1.4559,-1.4564,-1.4576,-1.4579,-1.4598,-1.459,-1.4616,-1.4605,-1.4614,-1.462,-1.4621,-1.4623,-1.4613,-1.4627,-1.4655,-1.4658,-1.4625,-1.4625,-1.4624,0,-1.4448,-1.4475,-1.4495,-1.4503,-1.4522,-1.4531,-1.454,-1.4554,-1.4564,-1.4579,-1.4586,-1.4603,-1.4612,-1.4625,-1.4633,-1.4627,-1.4658,-1.4651,-1.4662,-1.4662,-1.4668,-1.4667,-1.4697,-1.4675,-1.4675,-1.4675,-1.4675,0,-1.4472,-1.4489,-1.4501,-1.4514,-1.4533,-1.454,-1.4559,-1.4568,-1.458,-1.4594,-1.4598,-1.4611,-1.4621,-1.4636,-1.4642,-1.4662,-1.4667,-1.4671,-1.4672,-1.467,-1.4669,-1.4675,-1.4674,-1.4676,-1.4676,-1.4676,-1.4676,0,-1.449,-1.4499,-1.4521,-1.4537,-1.4541,-1.4555,-1.4568,-1.4581,-1.4588,-1.4606,-1.4611,-1.4623,-1.4641,-1.465,-1.4672,-1.4676,-1.4699,-1.47,-1.4693,-1.4694,-1.4704,-1.4702,-1.4737,-1.4742,-1.4718,-1.4719,-1.4719,0,-1.4504,-1.4517,-1.4534,-1.4544,-1.4552,-1.4568,-1.4578,-1.4586,-1.4597,-1.4614,-1.4624,-1.4642,-1.4656,-1.4684,-1.4695,-1.4712,-1.4713,-1.4724,-1.4716,-1.4713,-1.4712,-1.4711,-1.4712,-1.4725,-1.4726,-1.4726,-1.4726,0,-1.4528,-1.4532,-1.4546,-1.4563,-1.4575,-1.4588,-1.4601,-1.4609,-1.4619,-1.4631,-1.4648,-1.4659,-1.4682,-1.4699,-1.4717,-1.4726,-1.4727,-1.4729,-1.4732,-1.4729,-1.4725,-1.4727,-1.4696,-1.4728,-1.4728,-1.4727,-1.4727,-1.4727,-1.4544,-1.4556,-1.4569,-1.4585,-1.4596,-1.4608,-1.462,-1.4629,-1.4644,-1.4662,-1.4666,-1.4685,-1.4699,-1.4723,-1.4733,-1.4747,-1.4745,-1.475,-1.4751,-1.4752,-1.4752,-1.4723,-1.4751,-1.4751,-1.4751,-1.4751,-1.4751,0,-1.4568,-1.4577,-1.4592,-1.4609,-1.4622,-1.4622,-1.4637,-1.4647,-1.4663,-1.4676,-1.469,-1.4711,-1.4727,-1.474,-1.4757,-1.4766,-1.4767,-1.477,-1.4769,-1.4771,-1.4753,-1.4748,-1.4769,-1.4769,-1.4769,-1.4769,-1.4769,-1.4769,-1.4582,-1.4601,-1.4606,-1.4631,-1.464,-1.4657,-1.4665,-1.4676,-1.4687,-1.4709,-1.4723,-1.473,-1.4743,-1.4761,-1.4777,-1.478,-1.4786,-1.4788,-1.4792,-1.4775,-1.4773,-1.4771,-1.4766,-1.479,-1.479,-1.4808,-1.4808,-1.4808]},{"header":{"parameterUnit":"m.s-1","parameterCategory":1,"la1":30.2991,"la2":30.254,"lo1":-89.0895,"lo2":-89.0444,"dy":0.0017,"dx":0.0017,"nx":28,"ny":28,"refTime":"2025-11-18T09:00:00:Z","depth":0,"parameterNumber":3,"parameterNumberName":"V-component_of_WINDS"},"data":[0,0,0,0,0,0,0,0,0,0,0,0,0,0,0,0,0,0,0,0,0,0,0,0,0,0,0,0,0,0,0,0,0,0,0,0,0,0,0,0,0,0,0,0,0,0,0,0,0,0,0,0,0,0,0,0,0,0,1.2162,1.2163,0,1.2222,1.2223,1.2223,1.2234,1.2233,1.2233,1.2232,1.2292,1.2294,1.2296,0,0,0,0,0,0,0,0,0,0,0,0,0,1.2056,1.2058,1.2162,1.2163,1.2164,1.2222,1.2223,1.2223,1.2234,1.2233,1.2233,1.2232,1.2291,1.2294,1.2296,0,0,0,0,0,0,0,0,0,0,0,0,0,1.2108,1.2059,1.2162,1.2176,1.2178,1.2222,1.2223,1.2224,1.2234,1.2233,1.2233,1.2232,1.229,1.2293,1.2296,1.233,0,0,1.2306,1.2307,0,0,0,0,0,0,0,0,1.2105,1.2111,1.2173,1.2175,1.2177,1.222,1.2207,1.2259,1.2234,1.2213,1.2232,1.2232,1.2268,1.2273,1.2286,1.2333,1.2335,1.2306,1.2308,1.2309,1.231,0,0,0,0,0,0,0,1.2101,1.2109,1.2186,1.2174,1.2177,1.2179,1.2185,1.2217,1.2244,1.2214,1.2215,1.2222,1.2269,1.2283,1.2287,1.2336,1.2306,1.2309,1.2311,1.2312,1.2415,1.2416,0,0,0,0,0,0,1.2095,1.2106,1.2184,1.2188,1.2138,1.2181,1.2189,1.2207,1.2244,1.2248,1.2223,1.2223,1.2278,1.2284,1.229,1.2332,1.2309,1.2312,1.2314,1.2414,1.2415,1.2416,0,0,0,0,0,0,1.2093,1.2102,1.2181,1.2147,1.2157,1.2184,1.2204,1.2208,1.2222,1.225,1.2255,1.2232,1.2278,1.2285,1.232,1.2334,1.2313,1.2316,1.2413,1.2414,1.2415,1.2417,0,0,0,0,0,0,1.209,1.2101,1.2114,1.2147,1.2159,1.2211,1.2205,1.221,1.2228,1.2228,1.226,1.2264,1.2278,1.2316,1.2323,1.2338,1.2319,1.2412,1.2413,1.2415,1.2416,1.2419,1.2421,0,0,0,0,0,1.2086,1.2112,1.2115,1.2124,1.2176,1.2212,1.2219,1.2234,1.2229,1.2242,1.226,1.2263,1.2332,1.2319,1.2328,1.2344,1.2411,1.2413,1.2415,1.2415,1.2418,1.2421,0,0,0,0,0,0,1.2079,1.2116,1.212,1.2158,1.2182,1.2214,1.2232,1.2237,1.2263,1.2262,1.2279,1.2286,1.232,1.2336,1.2321,1.2379,1.2371,1.2375,1.2368,1.2371,1.2373,1.2369,1.2321,0,0,0,0,0,1.2082,1.2109,1.214,1.217,1.2182,1.2205,1.2221,1.2231,1.2256,1.2266,1.2287,1.2311,1.2338,1.2355,1.2381,1.2418,1.2426,1.2434,1.2436,1.2437,1.2441,1.2462,1.2466,1.2423,1.2423,1.2423,0,0,1.2089,1.2112,1.2128,1.2169,1.2189,1.2216,1.2213,1.2241,1.2262,1.227,1.2305,1.2321,1.2349,1.2385,1.2402,1.2399,1.2454,1.244,1.2441,1.2444,1.2465,1.2469,1.2472,1.2424,1.2424,1.2423,0,0,1.2114,1.2135,1.2162,1.2183,1.2213,1.2228,1.2235,1.2266,1.2277,1.2313,1.232,1.2344,1.239,1.241,1.2426,1.246,1.2464,1.2468,1.248,1.25,1.2504,1.2507,1.252,1.2524,1.2471,1.2471,1.2471,0,1.2118,1.216,1.2176,1.2204,1.2223,1.2232,1.2261,1.2279,1.2316,1.2328,1.2324,1.2383,1.2402,1.2444,1.2452,1.2464,1.2473,1.2464,1.2502,1.2505,1.2508,1.2521,1.2526,1.2471,1.2471,1.2471,1.2471,0,1.2163,1.2192,1.2211,1.2247,1.2267,1.2295,1.2316,1.2334,1.2342,1.2358,1.2394,1.2418,1.2449,1.246,1.2467,1.2503,1.25,1.2498,1.2491,1.2513,1.2525,1.2529,1.2471,1.2471,1.2471,1.2471,0,0,1.2187,1.2232,1.2239,1.2256,1.229,1.2313,1.2341,1.2373,1.2389,1.2414,1.2438,1.2477,1.2477,1.2495,1.2505,1.2523,1.255,1.252,1.2521,1.2525,1.2591,1.2592,1.2597,1.2552,1.2553,1.2554,1.2589,0,1.2217,1.2269,1.2285,1.2329,1.2355,1.2365,1.239,1.2414,1.2429,1.2454,1.247,1.2498,1.2495,1.2506,1.2524,1.2542,1.2563,1.254,1.2576,1.2577,1.2569,1.2603,1.2605,1.2636,1.2593,1.2594,1.2595,0,1.2259,1.2286,1.2333,1.2365,1.2377,1.2399,1.243,1.2453,1.248,1.249,1.2511,1.2519,1.255,1.254,1.2582,1.2566,1.2581,1.2593,1.2594,1.2599,1.2587,1.2609,1.2646,1.2651,1.2602,1.2601,1.2601,0,1.2273,1.2321,1.2355,1.2369,1.2407,1.2422,1.2439,1.2465,1.2483,1.251,1.2522,1.2551,1.2567,1.259,1.2606,1.2598,1.2647,1.2639,1.2656,1.2656,1.2667,1.2666,1.2708,1.2676,1.2676,1.2675,1.2675,0,1.2306,1.2334,1.2362,1.2383,1.2415,1.2432,1.2464,1.248,1.2504,1.2528,1.2538,1.2561,1.2581,1.2606,1.2619,1.2652,1.2659,1.2668,1.2671,1.2668,1.2667,1.2678,1.2677,1.2677,1.2676,1.2676,1.2676,0,1.2326,1.2346,1.2384,1.2417,1.2426,1.2448,1.2476,1.2497,1.2512,1.2543,1.2551,1.2576,1.2606,1.2625,1.2663,1.2672,1.2709,1.2711,1.27,1.2702,1.2719,1.2717,1.277,1.2778,1.274,1.274,1.274,0,1.2346,1.2369,1.2404,1.2421,1.2438,1.2466,1.2485,1.2503,1.2522,1.2555,1.2572,1.2603,1.2629,1.2677,1.2698,1.2727,1.2731,1.2747,1.2735,1.2731,1.2732,1.2731,1.2733,1.2749,1.275,1.275,1.275,0,1.238,1.2389,1.2416,1.2447,1.247,1.2494,1.2519,1.2533,1.2555,1.2576,1.2608,1.2628,1.2667,1.2698,1.273,1.2746,1.2752,1.2754,1.2759,1.2756,1.275,1.2754,1.2706,1.2752,1.2752,1.2752,1.2752,1.2752,1.2402,1.2422,1.2451,1.2481,1.2501,1.2525,1.2546,1.2565,1.2591,1.2626,1.2634,1.2668,1.2694,1.2737,1.2754,1.2781,1.2778,1.2786,1.2789,1.2791,1.2791,1.2745,1.2786,1.2786,1.2786,1.2786,1.2786,0,1.2437,1.2456,1.2483,1.2518,1.2542,1.2545,1.2573,1.2593,1.2622,1.2647,1.2672,1.2709,1.2739,1.2763,1.2794,1.281,1.2814,1.2818,1.2817,1.2821,1.2791,1.2784,1.2814,1.2814,1.2814,1.2814,1.2814,1.2814,1.2458,1.2493,1.2505,1.2551,1.2569,1.2603,1.2618,1.264,1.266,1.27,1.2726,1.2741,1.2765,1.2798,1.2826,1.2832,1.2843,1.2847,1.2854,1.2826,1.2823,1.282,1.2813,1.2849,1.2849,1.2881,1.2882,1.2882]}]]